RH
78 77 73 69 71 71 74 74 77 74 79 81 79 78 78 76 73 84 84 82 84 85 84 84 84 88 93 95 96 95 94 96 96 99 99 98 98 95 92 86 82 82 84
76 82 83 68 68 70 72 71 71 73 71 70 72 72 72 72 74 75 77 79 80 75 80 84 86 76 87 87 82 94 95 94 90 97 98 99 99 98 96 89 83 80 79
69 82 76 65 68 72 71 72 71 70 69 67 70 72 71 70 71 72 76 78 78 74 79 81 85 86 87 89 88 86 86 83 85 89 98 99 99 98 97 91 90 89 82
56 60 68 73 70 68 71 72 72 70 70 71 70 69 68 68 68 70 72 76 76 76 79 80 82 86 90 87 89 90 89 86 88 89 93 99 98 97 98 95 90 84 82
59 65 66 71 70 71 72 71 70 70 69 69 70 66 63 63 55 76 71 73 77 77 76 74 80 80 84 85 81 90 89 88 90 96 98 98 98 98 95 88 88 86 92
61 68 71 77 79 76 74 74 73 72 71 70 68 65 67 48 83 86 77 71 73 75 80 82 81 76 78 81 80 81 88 90 89 85 88 88 93 93 90 84 88 90 92
64 64 74 78 78 80 76 76 79 76 76 74 75 78 75 72 80 82 86 71 73 75 77 75 62 59 73 67 75 77 77 82 85 90 94 94 94 89 91 92 89 92 92
72 74 78 79 81 88 84 83 84 79 80 80 77 80 80 73 82 86 85 74 76 74 74 72 76 77 83 67 65 65 66 72 75 61 79 74 74 75 81 78 86 85 86
78 75 87 86 84 86 88 90 84 83 82 80 78 81 81 80 84 86 88 75 75 77 77 81 72 76 80 79 68 72 70 60 66 73 71 70 68 70 72 73 84 88 85
71 85 92 92 96 90 90 90 92 84 83 73 77 78 81 82 86 86 79 70 77 71 79 80 76 72 76 75 76 76 77 72 66 69 71 73 75 66 71 78 72 67 68
78 94 90 98 98 97 98 97 93 89 84 84 83 84 79 83 86 84 82 72 67 74 72 71 64 69 71 71 73 76 82 82 69 75 76 75 77 77 69 75 77 72 71
88 92 95 94 96 95 92 95 95 96 92 91 89 83 76 84 88 86 81 80 76 70 70 67 64 69 67 64 66 71 73 74 65 64 67 66 64 64 67 70 71 72 70
87 92 96 95 94 96 97 94 99 98 98 97 96 86 76 76 81 88 83 80 76 74 71 71 70 68 71 64 60 63 71 65 64 66 65 66 63 64 63 75 75 79 79
87 93 91 92 97 96 98 97 93 94 98 99 98 97 71 73 73 72 69 69 76 64 69 61 63 66 72 71 58 61 63 60 64 65 64 61 60 63 67 60 64 63 64
91 93 91 95 96 99 100 100 100 97 98 98 97 93 82 72 69 76 72 68 64 65 67 66 69 65 63 61 62 61 63 62 66 62 64 63 62 60 66 61 66 66 65
82 80 82 87 85 92 97 98 98 98 99 98 93 90 78 88 86 80 79 78 77 72 65 62 56 54 54 55 58 60 56 58 62 60 63 61 61 63 59 65 62 62 64
83 82 80 83 80 84 92 95 98 98 97 94 91 86 79 83 84 80 77 74 77 73 62 51 52 55 59 53 53 54 54 63 66 68 60 60 58 59 57 62 59 62 60
73 91 72 75 74 72 78 85 86 92 89 88 91 81 88 85 82 80 77 76 56 62 52 52 56 61 57 56 54 55 56 66 64 62 59 55 56 56 58 56 56 58 55
67 62 65 61 72 77 76 77 77 78 79 80 74 77 83 86 84 82 83 58 56 52 47 47 52 59 57 57 63 70 66 62 59 59 61 62 59 54 57 54 51 55 55
63 77 77 73 60 66 73 75 67 71 76 73 68 65 63 67 63 62 60 59 55 48 42 42 53 56 56 62 66 67 62 62 63 58 61 61 58 55 52 50 49 50 48
54 66 69 59 59 67 61 57 56 59 65 71 59 55 70 62 58 58 56 56 54 47 43 40 35 43 52 62 59 57 50 47 52 52 52 58 57 53 58 54 50 47 47
58 61 56 66 54 56 61 49 54 50 58 51 37 59 78 54 42 40 43 44 44 40 37 46 37 36 34 41 52 48 49 47 50 51 53 52 54 53 53 50 47 48 46
62 58 50 59 53 56 39 31 35 32 27 33 37 44 50 43 40 36 32 31 32 36 42 43 40 40 48 52 51 51 43 47 52 54 54 53 55 54 52 50 45 41 41
57 55 49 58 56 48 46 42 46 50 41 40 37 35 36 36 34 37 37 38 42 42 45 45 44 37 51 48 49 46 49 53 54 47 54 53 53 52 46 45 36 33 31
49 53 52 56 63 56 58 52 67 63 64 68 57 63 66 53 46 35 44 47 43 45 48 48 47 47 48 48 47 38 64 71 47 57 44 48 49 50 38 34 34 33 35
47 50 51 54 57 62 62 60 53 53 65 67 64 71 74 78 78 74 56 55 50 50 47 50 46 45 47 47 45 60 71 72 56 73 40 36 34 34 33 37 38 35 34
Wind_Speed
5 5 5 7 7 5 4 7 6 4 5 4 2 3 4 3 4 6 7 7 7 7 7 7 8 8 6 4 5 3 3 5 6 3 3 4 5 6 5 5 6 6 6
5 5 4 7 7 6 5 7 5 3 4 5 5 5 6 6 6 7 8 8 8 9 8 9 9 6 8 7 6 8 7 6 6 9 2 3 5 4 5 5 4 4 5
7 8 8 9 8 7 6 7 5 4 4 6 5 6 6 5 5 6 7 8 6 8 10 9 9 8 6 6 7 7 7 7 7 6 4 2 2 1 3 2 2 1 3
9 12 10 8 7 7 5 5 5 5 5 6 4 5 4 6 6 6 7 6 9 9 9 9 9 9 8 5 7 9 8 8 8 7 5 3 2 1 1 1 2 2 1
10 4 9 8 8 7 6 6 5 4 5 5 5 3 4 8 6 7 7 5 6 7 8 8 9 12 16 16 6 8 9 8 6 6 3 2 1 1 1 3 2 3 2
10 5 8 5 7 7 6 5 6 6 5 3 4 6 9 6 8 9 8 5 5 5 5 6 6 10 12 14 15 21 9 7 8 6 4 4 4 4 3 3 3 2 1
6 5 8 8 7 7 8 5 6 5 5 3 4 7 9 5 6 9 11 5 5 5 7 8 8 8 7 8 12 14 15 15 12 6 6 4 4 2 3 4 3 3 3
8 4 8 10 10 8 8 8 6 6 6 4 4 7 9 4 4 7 8 4 4 6 7 6 5 7 7 6 7 8 8 8 7 6 6 5 4 4 3 3 2 1 1
4 0 3 4 7 10 10 9 7 8 6 5 4 7 9 5 1 5 7 1 5 7 7 6 5 6 8 9 7 6 6 5 6 8 7 6 4 2 3 4 0 3 4
1 3 5 6 8 7 6 8 7 8 7 6 5 6 9 7 4 2 4 4 5 6 6 6 10 5 6 8 1 7 6 5 5 5 2 3 4 2 7 6 5 5 4
3 5 6 5 6 5 5 7 7 7 7 5 5 6 6 8 5 2 6 3 4 3 4 5 3 4 6 7 7 5 3 4 3 5 6 5 5 4 3 5 4 3 4
4 4 5 3 3 4 3 5 5 5 6 5 5 4 4 6 8 4 5 7 2 4 5 5 4 2 3 4 3 3 4 4 4 6 2 4 4 4 3 3 3 2 0
4 3 4 3 3 4 6 1 4 5 5 4 4 5 5 5 5 7 6 4 4 3 3 6 9 4 1 4 2 3 4 4 5 1 4 4 3 3 2 2 5 7 5
2 3 2 2 1 4 3 2 4 6 5 4 4 5 5 6 7 6 4 3 4 5 6 5 5 4 5 4 3 4 3 3 3 3 3 2 0 1 1 2 1 2 3
1 2 1 1 0 2 3 3 2 3 1 5 3 4 4 6 6 9 8 7 6 6 6 4 2 4 5 6 5 4 4 3 2 1 2 2 1 1 2 2 1 2 2
4 4 4 4 3 1 1 1 8 6 8 9 6 1 3 8 9 14 12 8 10 11 4 5 6 8 8 7 6 4 4 1 2 1 2 2 1 3 1 4 1 1 2
4 4 2 3 5 5 4 3 3 2 8 8 7 8 8 10 9 10 11 10 8 5 4 8 8 7 5 4 3 3 5 5 2 4 0 2 1 1 3 2 2 2 2
4 4 5 4 5 5 5 6 4 5 5 3 3 4 6 10 8 9 9 6 3 2 6 8 7 5 4 4 3 3 6 4 4 3 2 1 1 1 4 2 4 3 3
4 5 5 6 2 5 5 6 6 8 7 6 4 3 5 5 7 5 4 5 7 7 8 9 7 4 5 4 4 4 4 4 2 1 3 3 4 3 4 3 3 4 3
6 8 5 3 5 5 6 7 8 8 9 9 9 9 8 6 6 7 7 7 7 7 10 10 5 5 5 4 5 5 4 4 5 5 5 4 3 2 2 4 4 3 6
7 5 8 7 9 6 7 10 11 10 10 9 9 11 16 10 9 9 8 8 9 10 9 6 7 6 5 5 5 5 6 6 8 8 5 3 4 2 2 2 4 5 4
6 5 4 5 10 6 10 10 11 9 10 11 7 10 21 10 10 10 10 9 10 10 4 4 2 7 8 7 7 6 4 5 1 2 2 3 2 3 3 3 5 4 5
6 7 7 6 7 4 8 4 4 3 4 4 10 10 9 8 9 9 10 10 8 6 3 4 1 2 4 4 4 2 2 2 4 4 3 2 2 3 4 4 5 6 4
7 7 7 6 6 4 5 1 3 7 4 3 6 11 10 8 8 8 4 5 5 5 4 5 3 3 4 2 4 3 7 5 5 5 4 2 3 4 5 4 4 6 5
9 7 7 8 5 4 2 4 5 5 5 7 5 5 5 4 3 12 5 3 5 5 5 2 1 3 3 3 9 12 8 10 8 4 3 4 5 6 4 4 6 5 5
8 8 7 7 6 4 4 3 3 3 4 2 4 5 4 4 5 6 4 4 4 4 4 4 6 10 6 4 14 14 9 8 6 6 3 4 5 5 5 5 4 3 5
Wind_Direction
142 155 143 119 119 110 95 83 79 75 128 156 168 195 152 112 47 100 92 56 42 38 28 33 39 24 39 43 40 74 117 91 115 82 69 55 56 66 52 56 58 88 70
142 133 137 133 132 130 115 104 104 100 90 73 71 70 65 52 35 72 69 63 47 54 41 36 31 33 31 33 47 56 59 81 116 117 106 86 65 41 39 59 56 50 76
151 170 181 148 144 132 126 116 121 108 82 77 62 59 60 56 57 51 93 97 75 53 45 37 26 24 36 52 59 60 52 97 107 115 110 95 104 96 76 53 84 114 89
203 187 153 152 137 142 136 135 129 115 105 97 79 83 81 78 53 69 60 57 85 77 62 52 47 34 21 41 85 79 70 76 89 100 101 88 92 118 124 125 93 34 119
225 190 148 148 151 144 166 144 127 133 101 115 125 127 79 71 44 3 87 64 77 93 86 80 73 64 54 51 44 97 102 97 96 102 93 86 92 139 194 186 156 181 175
222 146 129 144 151 167 159 147 152 128 127 135 142 103 72 76 14 16 27 84 69 71 111 136 128 86 68 59 54 52 64 129 136 136 147 152 172 189 163 189 181 178 203
225 190 160 165 188 170 154 180 154 142 137 122 84 98 102 98 27 24 356 91 102 77 49 35 66 45 48 67 43 45 42 40 59 62 80 81 114 152 189 204 218 220 180
209 220 168 184 186 189 166 177 157 156 161 141 133 123 112 103 25 15 4 121 100 100 92 81 71 71 35 74 81 69 56 46 42 65 70 60 65 21 31 311 229 204 138
269 45 336 308 215 197 182 181 173 156 162 168 160 134 126 133 82 27 353 78 111 87 78 29 89 69 12 19 116 111 101 103 76 94 117 132 119 52 24 355 3 242 230
118 53 34 343 334 284 224 168 172 169 169 156 191 161 142 144 177 72 355 282 143 126 119 94 56 50 13 19 156 160 160 180 155 152 190 259 217 198 76 63 5 1 7
138 105 60 12 280 197 224 263 183 180 158 167 157 144 161 150 159 137 15 40 133 173 162 114 97 55 24 14 21 38 47 342 254 218 196 204 198 174 101 93 36 20 27
85 106 124 220 302 329 259 214 209 161 157 147 145 154 192 132 140 139 73 50 2 142 133 127 124 138 19 2 91 67 10 334 271 253 212 88 65 68 59 110 180 231 152
134 108 67 36 15 14 357 225 120 131 163 162 157 196 177 168 137 130 127 116 78 113 116 122 131 147 255 278 272 278 298 257 254 56 81 90 105 154 235 223 245 215 215
175 138 175 247 14 18 20 36 153 164 173 164 173 227 178 176 152 164 164 166 132 114 124 125 147 197 273 294 242 252 267 18 16 31 38 59 314 103 131 111 326 318 305
118 130 218 119 284 76 54 3 338 49 214 179 197 213 186 202 176 164 181 188 174 174 158 124 179 226 224 220 225 209 139 191 208 70 31 25 62 35 62 349 275 301 332
232 219 217 174 190 155 166 131 50 57 59 64 47 181 83 86 124 116 109 100 132 140 143 184 210 223 228 219 173 155 139 179 57 85 106 72 357 98 37 296 138 271 280
282 304 269 200 182 180 188 195 183 68 84 71 62 85 131 141 121 111 112 114 126 128 209 215 220 228 200 125 165 184 133 114 144 268 227 159 184 31 209 255 255 224 78
274 242 281 267 184 194 201 199 197 185 182 157 63 101 113 128 133 140 137 133 168 211 232 245 261 181 143 147 181 156 142 160 198 204 230 181 244 164 286 264 264 209 189
251 272 264 239 214 188 188 205 215 196 190 173 132 140 130 116 127 123 153 213 207 204 214 242 250 164 141 160 138 95 67 72 102 166 265 230 217 215 256 273 328 352 299
249 247 263 262 248 223 200 216 208 206 196 184 181 182 168 160 187 194 205 216 248 237 212 229 184 141 151 162 142 145 175 197 195 211 232 232 202 233 18 350 323 333 314
273 263 213 248 253 233 231 219 227 214 203 188 197 172 162 188 200 198 201 210 229 245 247 199 159 151 168 163 169 182 213 224 207 209 220 150 103 26 307 293 297 298 269
260 259 216 238 255 249 223 235 218 222 197 187 192 142 159 194 214 193 193 200 215 239 224 141 237 168 188 187 178 199 228 237 344 333 74 65 27 324 306 302 291 300 323
245 261 259 276 281 305 288 233 273 235 233 221 140 153 178 198 237 254 194 201 197 206 178 139 152 331 99 103 101 109 270 335 68 61 34 1 338 322 323 316 307 294 300
268 279 249 239 293 280 283 291 2 342 289 241 189 165 179 193 232 269 207 191 180 171 134 139 153 233 58 160 152 140 84 49 12 38 24 344 314 306 293 308 309 295 285
233 241 242 221 251 260 353 31 57 26 26 25 20 62 49 24 191 251 250 143 120 119 128 131 170 203 231 199 74 101 90 71 64 353 341 313 287 285 275 276 268 271 303
229 229 253 225 228 184 184 197 167 179 125 185 56 62 49 5 350 330 8 49 103 124 155 176 220 233 180 130 112 115 100 83 79 47 345 297 283 274 259 267 304 323 292